User: anonymous   Login
Location: Peebles
(55.6412°N, 3.1714°W)
Time: 08:18:33
(UTC+01:00)
Language:

FENGYUN 1C DEB - Orbit

View from above orbital plane
View from above orbital plane
View from above satellite
View from above satellite

Ground track
Ground track

The orbit data is extracted from the following two-line orbital elements,

1 30331U 99025AAS 22176.86498782  .00000402  00000-0  31563-3 0  9992
2 30331  99.1076 218.3397 0097890 241.7749 295.3790 13.95640454784605
Epoch (UTC): 25 June 2022 20:45:34
Eccentricity: 0.0097890
inclination: 99.1076°
perigee height: 837 km
apogee height: 980 km
right ascension of ascending node: 218.3397°
argument of perigee: 241.7749°
revolutions per day: 13.95640454
mean anomaly at epoch: 295.3790°
orbit number at epoch: 78460

The dashed part of the orbit path shows where the satellite is in the earth's shadow,  

DLR